Quad City International Airport Moline US
ICAO: KMLI
IATA: MLI
Category: Large
Scheduled Services: Yes

Elevation: 590 ft
TransAlt. 18000 ft.

Airport Communications:
APP/DEP:118.2
ATIS:121.2
CLNC DEL:123.95
CTAF:119.4
GND:121.9
KANKAKEE RDO:122.6
TWR:119.4
UNICOM:122.95

KMLI Zoom In..

Runways:

(A) RW 05 length 5015 ft width 150 ft
---- / hdg 48

(B) RW 09 length 10002 ft width 150 ft
ILS 110.50 / hdg 90

(C) RW 13 length 7301 ft width 150 ft
---- / hdg 126

(D) RW 23 length 5015 ft width 150 ft
---- / hdg 228

(E) RW 27 length 10002 ft width 150 ft
ILS 110.50 / hdg 270

(F) RW 31 length 7301 ft width 150 ft
---- / hdg 306

Location; KMLI
Day. 23 / Time. 07.52 Zulu
* Altimeter: 29.97
* Temperature: 21° c. 69.8°f.
* Wind from: 020° Speed 03 kn.
Dewpoint: 18° c.
Visibility: 10 Statute Miles.
Clouds: Clear (automated report).

KMLI 230752Z AUTO 02003KT 10SM CLR 21/18 A2997 RMK AO2 SLP143 T02060183


Wind From 020°
Speed 03 kn.

 
 
jpsmedia.com for Web Design worldairports.se 2018   terms of use